Weather History for KAFK - December, 2013

Change the Weather History Date:

Tuesday, December 3, 2013

  Actual Average (KSDA) Record (KSDA)
Temperature  
Mean Temperature 42 °F -  
Max Temperature 48 °F 40 °F 69 °F (1998)
Min Temperature 35 °F 21 °F 3 °F (1966)
Degree Days  
Heating Degree Days 24    
Moisture  
Dew Point 36 °F    
Average Humidity 89    
Maximum Humidity 100    
Minimum Humidity 65    
Precipitation  
Precipitation 0.00 in - - ()
Sea Level Pressure  
Sea Level Pressure 29.56 in    
Wind  
Wind Speed 8 mph (North)    
Max Wind Speed 13 mph    
Max Gust Speed 16 mph    
Visibility 6 miles    
Events      
Averages and records for this station are not official NWS values.
T = Trace of Precipitation, MM = Missing Value Source: NWS Daily Summary

Daily Weather History Graph

Daily Weather History Graph

Search for Another Location

Airport or City:

Trip Planner

Search our weather history database for the weather conditions in past years. The results will help you decide how hot, cold, wet, or windy it might be!

Date:

Astronomy

Dec. 03, 2013 Rise Set
Actual Time 7:30 AM CST 4:56 PM CST
Civil Twilight 6:59 AM CST 5:27 PM CST
Nautical Twilight 6:25 AM CST 6:01 PM CST
Astronomical Twilight 5:52 AM CST 6:34 PM CST
Moon 8:00 AM CST (12/3) 6:01 PM CST (12/3)
Length of Visible Light 10h 27m
Length of Day
9h 26m
New Moon, 1% of the Moon is Illuminated
Dec 3
New Moon
Dec 9
First Quarter
Dec 17
Full
Dec 25
Last Quarter
Jan 1
New

Hourly Weather History & Observations

Time (CST) Temp. Windchill Dew Point Humidity Pressure Visibility Wind Dir Wind Speed Gust Speed Precip Events Conditions
12:15 AM 37.8 °F 30.2 °F 34.9 °F 89% 29.52 in 10.0 mi South 11.5 mph - N/A   Clear
12:35 AM 37.4 °F 29.8 °F 34.7 °F 90% 29.52 in 10.0 mi South 11.5 mph - N/A   Clear
12:55 AM 37.4 °F 29.8 °F 34.7 °F 90% 29.51 in 7.0 mi South 11.5 mph - N/A   Clear
1:15 AM 37.4 °F 29.3 °F 35.6 °F 93% 29.51 in 7.0 mi South 12.7 mph - N/A   Scattered Clouds
1:35 AM 37.8 °F 29.8 °F 35.6 °F 92% 29.51 in 7.0 mi SSW 12.7 mph - N/A   Scattered Clouds
1:55 AM 36.7 °F 29.4 °F 34.9 °F 93% 29.51 in 7.0 mi South 10.4 mph - N/A   Scattered Clouds
2:15 AM 35.6 °F 30.7 °F 35.1 °F 98% 29.52 in 7.0 mi South 5.8 mph - N/A   Clear
2:35 AM 36.1 °F - 36.1 °F 100% 29.52 in 7.0 mi Calm Calm - N/A   Clear
2:55 AM 35.1 °F 31.0 °F 35.1 °F 100% 29.52 in 5.0 mi South 4.6 mph - N/A   Clear
3:15 AM 35.6 °F 30.7 °F 35.6 °F 100% 29.51 in 5.0 mi South 5.8 mph - N/A   Clear
3:35 AM 36.1 °F - 36.1 °F 100% 29.52 in 5.0 mi Calm Calm - N/A   Clear
3:55 AM 36.9 °F 34.3 °F 36.9 °F 100% 29.51 in 5.0 mi SSE 3.5 mph - N/A   Clear
4:15 AM 36.7 °F 34.1 °F 36.7 °F 100% 29.50 in 5.0 mi South 3.5 mph - N/A   Clear
4:35 AM 36.0 °F - 36.0 °F 100% 29.51 in 5.0 mi Calm Calm - N/A   Clear
4:55 AM 36.5 °F - 36.5 °F 100% 29.50 in 5.0 mi Calm Calm - N/A   Clear
5:15 AM 37.8 °F - 37.8 °F 100% 29.49 in 7.0 mi Calm Calm - N/A   Clear
5:35 AM 37.0 °F 31.6 °F 36.9 °F 99% 29.49 in 7.0 mi South 6.9 mph - N/A   Clear
5:55 AM 37.0 °F 31.6 °F 37.0 °F 100% 29.50 in 5.0 mi SSW 6.9 mph - N/A   Mostly Cloudy
6:15 AM 37.9 °F 33.5 °F 37.9 °F 100% 29.50 in 7.0 mi SW 5.8 mph - N/A   Overcast
6:35 AM 37.9 °F 34.4 °F 37.8 °F 99% 29.50 in 7.0 mi SSW 4.6 mph - N/A   Overcast
6:55 AM 37.8 °F 32.5 °F 37.6 °F 99% 29.50 in 7.0 mi SSW 6.9 mph - N/A   Overcast
7:15 AM 38.3 °F 33.9 °F 37.9 °F 99% 29.49 in 7.0 mi SSW 5.8 mph - N/A   Overcast
7:35 AM 37.9 °F - 37.8 °F 99% 29.50 in 7.0 mi Calm Calm - N/A   Overcast
7:55 AM 38.3 °F 34.8 °F 37.8 °F 98% 29.49 in 7.0 mi South 4.6 mph - N/A   Mostly Cloudy
8:15 AM 38.1 °F 34.6 °F 38.1 °F 100% 29.52 in 5.0 mi West 4.6 mph - N/A   Overcast
8:35 AM 39.2 °F 34.2 °F 38.7 °F 98% 29.52 in 5.0 mi SSW 6.9 mph - N/A   Overcast
8:55 AM 40.5 °F 35.8 °F 39.2 °F 95% 29.53 in 7.0 mi SW 6.9 mph - N/A   Overcast
9:15 AM 41.0 °F - 38.7 °F 91% 29.53 in 7.0 mi Calm Calm - N/A   Scattered Clouds
9:35 AM 40.5 °F - 38.3 °F 92% 29.54 in 7.0 mi Calm Calm - N/A   Clear
9:55 AM 41.5 °F - 37.8 °F 86% 29.54 in 7.0 mi Calm Calm - N/A   Clear
10:15 AM 43.0 °F 41.3 °F 36.5 °F 78% 29.55 in 10.0 mi WNW 3.5 mph - N/A   Clear
10:35 AM 44.8 °F 41.0 °F 36.0 °F 71% 29.57 in 10.0 mi NNW 6.9 mph - N/A   Clear
10:55 AM 46.2 °F 41.7 °F 35.8 °F 67% 29.57 in 10.0 mi NNW 9.2 mph - N/A   Clear
11:15 AM 46.2 °F 43.3 °F 36.0 °F 67% 29.56 in 10.0 mi North 5.8 mph - N/A   Clear
11:35 AM 47.1 °F - 36.7 °F 67% 29.55 in 10.0 mi North 6.9 mph - N/A   Clear
11:55 AM 47.5 °F - 36.9 °F 67% 29.55 in 10.0 mi North 5.8 mph - N/A   Clear
12:15 PM 48.2 °F - 36.9 °F 65% 29.54 in 10.0 mi North 9.2 mph - N/A   Clear
12:35 PM 47.7 °F - 36.9 °F 66% 29.54 in 10.0 mi North 6.9 mph - N/A   Clear
12:55 PM 47.1 °F - 36.5 °F 67% 29.54 in 7.0 mi North 6.9 mph - N/A   Clear
1:15 PM 47.1 °F - 36.7 °F 67% 29.53 in 7.0 mi North 8.1 mph - N/A   Clear
1:35 PM 46.4 °F 41.9 °F 36.9 °F 69% 29.54 in 7.0 mi North 9.2 mph - N/A   Clear
1:55 PM 46.2 °F 42.7 °F 36.9 °F 70% 29.54 in 7.0 mi NNE 6.9 mph - N/A   Clear
2:35 PM 45.9 °F 40.8 °F 36.5 °F 70% 29.55 in 7.0 mi North 10.4 mph - N/A   Clear
2:55 PM 43.9 °F 37.5 °F 36.7 °F 76% 29.55 in 5.0 mi North 12.7 mph 16.1 mph N/A   Haze
3:15 PM 43.2 °F 37.4 °F 36.3 °F 77% 29.57 in 5.0 mi North 10.4 mph - N/A   Haze
3:35 PM 42.8 °F 37.0 °F 36.9 °F 80% 29.59 in 5.0 mi North 10.4 mph - N/A   Haze
3:55 PM 42.1 °F 36.1 °F 36.0 °F 79% 29.61 in 4.0 mi North 10.4 mph - N/A   Haze
4:15 PM 41.4 °F 35.2 °F 34.9 °F 78% 29.59 in 4.0 mi North 10.4 mph - N/A   Haze
4:35 PM 40.1 °F 35.3 °F 34.3 °F 80% 29.60 in 4.0 mi NNE 6.9 mph - N/A   Haze
4:55 PM 38.5 °F 32.7 °F 33.4 °F 82% 29.60 in 4.0 mi NNE 8.1 mph - N/A   Haze
5:15 PM 37.6 °F 31.6 °F 33.4 °F 85% 29.59 in 5.0 mi NNE 8.1 mph - N/A   Clear
5:35 PM 37.4 °F 31.4 °F 33.6 °F 86% 29.60 in 5.0 mi NNE 8.1 mph - N/A   Clear
5:55 PM 36.5 °F 31.0 °F 32.9 °F 87% 29.61 in 5.0 mi NE 6.9 mph - N/A   Clear
6:15 PM 35.6 °F 29.2 °F 32.7 °F 89% 29.61 in 5.0 mi NNE 8.1 mph - N/A   Clear
6:35 PM 35.6 °F 29.9 °F 32.9 °F 90% 29.62 in 5.0 mi NNE 6.9 mph - N/A   Clear
6:55 PM 35.4 °F 29.0 °F 33.1 °F 91% 29.62 in 5.0 mi NNE 8.1 mph - N/A   Clear
7:15 PM 35.6 °F 27.5 °F 34.3 °F 95% 29.63 in 5.0 mi NNE 11.5 mph - N/A   Clear
7:35 PM 35.8 °F 28.3 °F 34.3 °F 94% 29.64 in 5.0 mi NNE 10.4 mph - N/A   Clear
7:55 PM 35.8 °F 28.3 °F 34.9 °F 97% 29.63 in 5.0 mi NNE 10.4 mph - N/A   Mostly Cloudy
8:15 PM 36.0 °F 29.0 °F 35.1 °F 97% 29.63 in 4.0 mi NE 9.2 mph - N/A   Mostly Cloudy
8:35 PM 36.5 °F 29.7 °F 36.1 °F 99% 29.63 in 4.0 mi NNE 9.2 mph - N/A   Overcast
8:55 PM 36.5 °F 29.7 °F 36.0 °F 98% 29.63 in 4.0 mi NNE 9.2 mph - N/A   Overcast
9:15 PM 36.5 °F 29.7 °F 36.0 °F 98% 29.63 in 4.0 mi NNE 9.2 mph - N/A   Overcast
9:35 PM 36.7 °F 29.4 °F 35.6 °F 96% 29.64 in 5.0 mi NNE 10.4 mph - N/A   Overcast
9:55 PM 37.0 °F 29.8 °F 35.4 °F 94% 29.64 in 5.0 mi NNE 10.4 mph - N/A   Overcast
10:15 PM 37.4 °F 30.8 °F 35.8 °F 94% 29.64 in 4.0 mi NNE 9.2 mph - N/A   Overcast
10:35 PM 37.4 °F 30.3 °F 36.1 °F 95% 29.64 in 4.0 mi NNE 10.4 mph - N/A   Overcast
10:55 PM 37.6 °F 31.0 °F 36.7 °F 97% 29.65 in 4.0 mi NNE 9.2 mph - N/A   Overcast
11:15 PM 37.6 °F 31.6 °F 37.6 °F 100% 29.65 in 4.0 mi NNE 8.1 mph - N/A   Overcast
11:35 PM 37.8 °F 31.3 °F 37.8 °F 100% 29.65 in 4.0 mi NNE 9.2 mph - N/A   Overcast
11:55 PM 37.4 °F 30.8 °F 37.4 °F 100% 29.64 in 4.0 mi NNE 9.2 mph - N/A   Overcast